Weather History for Modesto, CA

Change the Weather History Date:

Friday, November 18, 2011

  Actual Average Record
Temperature  
Mean Temperature 57 °F -  
Max Temperature 61 °F 64 °F 78 °F (1932)
Min Temperature 52 °F 44 °F 26 °F (1964)
Degree Days  
Heating Degree Days 8 11  
Month to date heating degree days 191 143  
Since 1 July heating degree days 237 206  
Cooling Degree Days 0 0  
Month to date cooling degree days 0 0  
Year to date cooling degree days 1489 1696  
Growing Degree Days 4 (Base 50)    
Moisture  
Dew Point 44 °F    
Average Humidity 66    
Maximum Humidity 89    
Minimum Humidity 42    
Precipitation  
Precipitation T in 0.05 in 0.97 in (1950)
Month to date precipitation 0.46 0.75  
Year to date precipitation 10.43 10.46  
Since 1 July precipitation 1.46 1.71  
Snow  
Snow 0.00 in - - ()
Month to date snowfall 0.0  
Since 1 July snowfall 0.0  
Since 1 September snowfall 0.0  
Snow Depth -    
Sea Level Pressure  
Sea Level Pressure 29.99 in    
Wind  
Wind Speed 6 mph (NW)    
Max Wind Speed 12 mph    
Max Gust Speed 16 mph    
Visibility 10 miles    
Events Rain    
T = Trace of Precipitation, MM = Missing Value Source: NWS Daily Summary

Daily Weather History Graph

Daily Weather History Graph

Search for Another Location

Airport:

Trip Planner

Search our weather history database for the weather conditions in past years. The results will help you decide how hot, cold, wet, or windy it might be!

Date:

Astronomy

Nov. 18, 2011 Rise Set
Actual Time 6:46 AM PST 4:50 PM PST
Civil Twilight 6:18 AM PST 5:18 PM PST
Nautical Twilight 5:46 AM PST 5:50 PM PST
Astronomical Twilight 5:15 AM PST 6:21 PM PST
Moon No Moon Rise 12:32 PM PST (11/18)
Length of Visible Light 11h 00m
Length of Day
10h 04m
Waning Gibbous, 48% of the Moon is Illuminated
Nov 18
Waning Gibbous
Nov 24
New
Dec 2
First Quarter
Dec 10
Full
Dec 17
Last Quarter

Hourly Weather History & Observations

Time (PST) Temp. Dew Point Humidity Pressure Visibility Wind Dir Wind Speed Gust Speed Precip Events Conditions
1:53 AM 54.0 °F 50.0 °F 86% 30.04 in 10.0 mi NW 6.9 mph - N/A   Overcast
2:53 AM 55.0 °F 48.0 °F 77% 30.04 in 10.0 mi NNW 6.9 mph - N/A   Overcast
4:53 AM 54.0 °F 44.1 °F 69% 30.03 in 10.0 mi NNW 8.1 mph - N/A   Overcast
5:53 AM 53.1 °F 44.1 °F 71% 30.03 in 10.0 mi NW 8.1 mph - N/A   Overcast
6:53 AM 52.0 °F 45.0 °F 77% 30.03 in 10.0 mi WNW 6.9 mph - N/A   Overcast
7:53 AM 52.0 °F 45.0 °F 77% 30.04 in 10.0 mi NW 4.6 mph - N/A   Mostly Cloudy
8:53 AM 55.0 °F 45.0 °F 69% 30.04 in 10.0 mi WNW 8.1 mph - N/A   Overcast
9:53 AM 59.0 °F 42.1 °F 53% 30.03 in 10.0 mi Calm Calm - N/A   Scattered Clouds
10:53 AM 60.1 °F 37.9 °F 44% 30.01 in 10.0 mi NW 6.9 mph - N/A   Partly Cloudy
11:53 AM 59.0 °F 37.0 °F 44% 29.99 in 10.0 mi NW 8.1 mph - N/A   Overcast
1:53 PM 59.0 °F 39.0 °F 48% 29.96 in 10.0 mi West 3.5 mph - N/A   Scattered Clouds
2:53 PM 59.0 °F 39.9 °F 49% 29.95 in 10.0 mi Calm Calm - N/A   Overcast
3:53 PM 57.0 °F 44.1 °F 62% 29.95 in 10.0 mi NNW 6.9 mph - 0.00 in Rain Light Rain
4:53 PM 55.0 °F 45.0 °F 69% 29.95 in 10.0 mi NNW 4.6 mph - 0.00 in Rain Light Rain
5:53 PM 54.0 °F 48.0 °F 80% 29.95 in 10.0 mi Calm Calm - 0.01 in Rain Light Rain
6:53 PM 53.1 °F 48.0 °F 83% 29.97 in 10.0 mi NW 6.9 mph - 0.00 in Rain Light Rain
7:53 PM 51.1 °F 46.9 °F 86% 29.98 in 10.0 mi NNW 5.8 mph - 0.01 in   Mostly Cloudy
8:53 PM 48.9 °F 46.0 °F 90% 29.98 in 9.0 mi Calm Calm - N/A   Partly Cloudy
9:53 PM 51.1 °F 44.1 °F 77% 29.98 in 10.0 mi WNW 5.8 mph - N/A   Mostly Cloudy
10:53 PM 50.0 °F 43.0 °F 77% 29.97 in 10.0 mi NW 3.5 mph - N/A   Overcast
11:53 PM 46.9 °F 44.1 °F 90% 29.97 in 10.0 mi East 3.5 mph - N/A   Overcast